📊 Raw Sensor Data
Showing records 40926 to 40950 of 84,973 total
| ID | Distance (ft) | Battery V | Battery A | Int Temp (°F) | Int Humid (%) | Ext Temp (°F) | Solar V | RSSI | SNR | Time Stamp |
|---|---|---|---|---|---|---|---|---|---|---|
| 44060 | 15.2 | 3.89 | 0 | 73 | 51 | 69 | 4.50 | -71 | 7 | 06/20/2025 08:00 PM |
| 44059 | 15.2 | 4.00 | 7 | 75 | 51 | 70 | 4.50 | -71 | 8 | 06/20/2025 07:45 PM |
| 44058 | 15.2 | 4.01 | 10 | 77 | 50 | 72 | 4.50 | -71 | 7 | 06/20/2025 07:30 PM |
| 44057 | 15.2 | 4.02 | 0 | 79 | 50 | 73 | 4.50 | -71 | 8 | 06/20/2025 07:15 PM |
| 44056 | 15.2 | 3.96 | 21 | 81 | 50 | 74 | 4.50 | -71 | 8 | 06/20/2025 07:00 PM |
| 44055 | 15.2 | 4.10 | 0 | 82 | 49 | 74 | 5.10 | -71 | 8 | 06/20/2025 06:45 PM |
| 44054 | 15.2 | 3.94 | 0 | 83 | 49 | 76 | 5.10 | -71 | 8 | 06/20/2025 06:30 PM |
| 44053 | 15.3 | 4.12 | 0 | 84 | 49 | 76 | 5.10 | -72 | 7 | 06/20/2025 06:15 PM |
| 44052 | 15.3 | 3.94 | 0 | 85 | 49 | 77 | 5.10 | -72 | 7 | 06/20/2025 05:45 PM |
| 44051 | 15.3 | 3.94 | 0 | 86 | 48 | 78 | 5.10 | -71 | 8 | 06/20/2025 05:30 PM |
| 44050 | 15.3 | 3.94 | 0 | 87 | 48 | 78 | 5.10 | -70 | 7 | 06/20/2025 05:15 PM |
| 44049 | 15.3 | 3.94 | 0 | 87 | 47 | 79 | 5.10 | -73 | 8 | 06/20/2025 05:00 PM |
| 44048 | 15.3 | 3.94 | 0 | 88 | 46 | 80 | 5.10 | -71 | 7 | 06/20/2025 04:45 PM |
| 44047 | 15.3 | 3.94 | 0 | 89 | 45 | 81 | 5.10 | -71 | 7 | 06/20/2025 04:30 PM |
| 44046 | 15.3 | 3.94 | 0 | 88 | 45 | 81 | 5.10 | -72 | 8 | 06/20/2025 04:15 PM |
| 44045 | 15.3 | 3.94 | 0 | 89 | 45 | 81 | 5.10 | -70 | 8 | 06/20/2025 04:00 PM |
| 44044 | 15.3 | 3.94 | 0 | 89 | 44 | 82 | 5.10 | -71 | 7 | 06/20/2025 03:45 PM |
| 44043 | 15.3 | 3.94 | 0 | 88 | 43 | 81 | 5.10 | -71 | 7 | 06/20/2025 03:15 PM |
| 44042 | 15.3 | 3.94 | 0 | 88 | 43 | 81 | 5.10 | -73 | 4 | 06/20/2025 03:00 PM |
| 44041 | 15.3 | 3.94 | 0 | 88 | 42 | 82 | 5.10 | -73 | 8 | 06/20/2025 02:45 PM |
| 44040 | 15.3 | 4.12 | 0 | 88 | 42 | 81 | 5.10 | -72 | 7 | 06/20/2025 02:30 PM |
| 44039 | 15.3 | 3.94 | 0 | 87 | 42 | 81 | 5.10 | -71 | 8 | 06/20/2025 02:15 PM |
| 44038 | 15.3 | 3.94 | 0 | 86 | 41 | 80 | 5.10 | -72 | 8 | 06/20/2025 02:00 PM |
| 44037 | 15.3 | 3.94 | 0 | 84 | 42 | 79 | 5.10 | -72 | 8 | 06/20/2025 01:45 PM |
| 44036 | 15.3 | 3.94 | 0 | 84 | 42 | 78 | 5.10 | -70 | 7 | 06/20/2025 01:30 PM |